Time,TemperatureF,DewpointF,PressureIn,WindDirection,WindDirectionDegrees,WindSpeedMPH,WindSpeedGustMPH,Humidity,HourlyPrecipIn,Conditions,Clouds,dailyrainin,SoftwareType,DateUTC
2013-04-02 00:00:00,33.8,19.4,30.27,NW,306,0.0,2.0,55,0.00,,,0.00,VWS V14.01,2013-04-02 05:00:00,
2013-04-02 00:04:00,31.8,20.3,30.29,NW,306,0.0,0.0,62,0.00,,,0.00,VWS V14.01,2013-04-02 05:04:00,
2013-04-02 00:09:00,31.9,20.4,30.29,NW,306,0.0,2.0,62,0.00,,,0.00,VWS V14.01,2013-04-02 05:09:00,
2013-04-02 00:14:00,32.0,20.1,30.29,NW,306,0.0,2.0,61,0.00,,,0.00,VWS V14.01,2013-04-02 05:14:00,
2013-04-02 00:19:00,32.3,20.0,30.29,NW,306,0.0,2.0,60,0.00,,,0.00,VWS V14.01,2013-04-02 05:19:00,
2013-04-02 00:24:00,32.4,20.1,30.29,NW,306,4.0,4.0,60,0.00,,,0.00,VWS V14.01,2013-04-02 05:24:00,
2013-04-02 00:29:00,32.6,20.3,30.29,NW,306,0.0,4.0,60,0.00,,,0.00,VWS V14.01,2013-04-02 05:29:00,
2013-04-02 00:30:00,32.7,20.4,30.28,NW,306,0.0,4.0,60,0.00,,,0.00,VWS V14.01,2013-04-02 05:30:00,
2013-04-02 00:34:00,32.8,19.3,30.29,NW,306,0.0,1.0,57,0.00,,,0.00,VWS V14.01,2013-04-02 05:34:00,
2013-04-02 00:39:00,33.2,19.6,30.29,NW,306,0.0,2.0,57,0.00,,,0.00,VWS V14.01,2013-04-02 05:39:00,
2013-04-02 00:44:00,33.2,19.6,30.29,NW,306,2.0,2.0,57,0.00,,,0.00,VWS V14.01,2013-04-02 05:44:00,
2013-04-02 00:49:00,33.3,19.7,30.30,WNW,290,4.0,4.0,57,0.00,,,0.00,VWS V14.01,2013-04-02 05:49:00,
2013-04-02 00:54:00,33.4,19.4,30.30,WNW,290,0.0,4.0,56,0.00,,,0.00,VWS V14.01,2013-04-02 05:54:00,
2013-04-02 00:59:00,33.5,19.5,30.30,WNW,290,0.0,4.0,56,0.00,,,0.00,VWS V14.01,2013-04-02 05:59:00,
2013-04-02 01:00:00,31.9,20.4,30.29,NW,306,0.0,2.0,62,0.00,,,0.00,VWS V14.01,2013-04-02 06:00:00,
2013-04-02 01:04:00,33.6,19.6,30.30,WNW,290,0.0,1.0,56,0.00,,,0.00,VWS V14.01,2013-04-02 06:04:00,
2013-04-02 01:09:00,33.6,19.2,30.30,WNW,290,0.0,4.0,55,0.00,,,0.00,VWS V14.01,2013-04-02 06:09:00,
2013-04-02 01:14:00,33.6,19.2,30.30,WNW,290,0.0,4.0,55,0.00,,,0.00,VWS V14.01,2013-04-02 06:14:00,
2013-04-02 01:19:00,33.6,19.2,30.30,WNW,290,1.0,4.0,55,0.00,,,0.00,VWS V14.01,2013-04-02 06:19:00,
2013-04-02 01:24:00,33.5,19.5,30.31,WNW,290,0.0,4.0,56,0.00,,,0.00,VWS V14.01,2013-04-02 06:24:00,
2013-04-02 01:29:00,33.3,19.3,30.31,WNW,290,2.0,4.0,56,0.00,,,0.00,VWS V14.01,2013-04-02 06:29:00,
2013-04-02 01:30:00,32.6,19.9,30.29,NW,306,0.0,4.0,59,0.00,,,0.00,VWS V14.01,2013-04-02 06:30:00,
2013-04-02 01:34:00,33.3,19.3,30.31,WNW,293,0.0,5.0,56,0.00,,,0.00,VWS V14.01,2013-04-02 06:34:00,
2013-04-02 01:39:00,33.2,19.6,30.31,West,268,0.0,5.0,57,0.00,,,0.00,VWS V14.01,2013-04-02 06:39:00,
2013-04-02 01:44:00,33.1,19.5,30.30,West,267,0.0,5.0,57,0.00,,,0.00,VWS V14.01,2013-04-02 06:44:00,
2013-04-02 01:49:00,33.0,19.4,30.30,WSW,252,0.0,5.0,57,0.00,,,0.00,VWS V14.01,2013-04-02 06:49:00,
2013-04-02 01:54:00,32.9,19.4,30.31,NE,52,0.0,5.0,57,0.00,,,0.00,VWS V14.01,2013-04-02 06:54:00,
2013-04-02 01:59:00,32.9,19.4,30.31,SSE,155,0.0,5.0,57,0.00,,,0.00,VWS V14.01,2013-04-02 06:59:00,
2013-04-02 02:00:00,33.5,19.1,30.30,WNW,290,0.0,4.0,55,0.00,,,0.00,VWS V14.01,2013-04-02 07:00:00,
2013-04-02 02:04:00,32.7,19.6,30.31,SSE,155,0.0,1.0,58,0.00,,,0.00,VWS V14.01,2013-04-02 07:04:00,
2013-04-02 02:09:00,32.3,19.6,30.31,SSE,155,0.0,2.0,59,0.00,,,0.00,VWS V14.01,2013-04-02 07:09:00,
2013-04-02 02:14:00,32.0,19.3,30.31,SSE,165,0.0,4.0,59,0.00,,,0.00,VWS V14.01,2013-04-02 07:14:00,
2013-04-02 02:19:00,31.8,19.5,30.31,SSE,165,0.0,4.0,60,0.00,,,0.00,VWS V14.01,2013-04-02 07:19:00,
2013-04-02 02:24:00,31.6,19.7,30.31,SSE,165,0.0,4.0,61,0.00,,,0.00,VWS V14.01,2013-04-02 07:24:00,
2013-04-02 02:29:00,31.6,19.7,30.31,South,181,1.0,4.0,61,0.00,,,0.00,VWS V14.01,2013-04-02 07:29:00,
2013-04-02 02:30:00,33.3,19.3,30.31,NNE,26,0.0,5.0,56,0.00,,,0.00,VWS V14.01,2013-04-02 07:30:00,
2013-04-02 02:34:00,31.4,19.9,30.31,South,181,0.0,2.0,62,0.00,,,0.00,VWS V14.01,2013-04-02 07:34:00,
2013-04-02 02:39:00,30.9,20.2,30.31,South,181,0.0,2.0,64,0.00,,,0.00,VWS V14.01,2013-04-02 07:39:00,
2013-04-02 02:44:00,30.3,20.0,30.32,South,181,0.0,2.0,65,0.00,,,0.00,VWS V14.01,2013-04-02 07:44:00,
2013-04-02 02:49:00,29.9,19.9,30.32,South,181,0.0,2.0,66,0.00,,,0.00,VWS V14.01,2013-04-02 07:49:00,
2013-04-02 02:54:00,29.6,20.0,30.31,South,181,0.0,2.0,67,0.00,,,0.00,VWS V14.01,2013-04-02 07:54:00,
2013-04-02 02:59:00,29.3,19.7,30.31,South,181,0.0,2.0,67,0.00,,,0.00,VWS V14.01,2013-04-02 07:59:00,
2013-04-02 03:00:00,32.9,19.4,30.31,SSE,155,0.0,5.0,57,0.00,,,0.00,VWS V14.01,2013-04-02 08:00:00,
2013-04-02 03:04:00,29.2,19.6,30.31,South,182,2.0,2.0,67,0.00,,,0.00,VWS V14.01,2013-04-02 08:04:00,
2013-04-02 03:09:00,28.9,19.7,30.31,South,182,0.0,2.0,68,0.00,,,0.00,VWS V14.01,2013-04-02 08:09:00,
2013-04-02 03:19:00,28.5,19.6,30.31,South,182,0.0,2.0,69,0.00,,,0.00,VWS V14.01,2013-04-02 08:19:00,
2013-04-02 03:24:00,28.4,19.5,30.32,South,182,0.0,2.0,69,0.00,,,0.00,VWS V14.01,2013-04-02 08:24:00,
2013-04-02 03:29:00,28.4,19.5,30.32,South,182,0.0,2.0,69,0.00,,,0.00,VWS V14.01,2013-04-02 08:29:00,
2013-04-02 03:30:00,31.5,19.6,30.31,South,181,0.0,4.0,61,0.00,,,0.00,VWS V14.01,2013-04-02 08:30:00,
2013-04-02 03:34:00,28.4,19.5,30.32,South,182,0.0,0.0,69,0.00,,,0.00,VWS V14.01,2013-04-02 08:34:00,
2013-04-02 03:39:00,28.3,19.5,30.32,South,182,0.0,1.0,69,0.00,,,0.00,VWS V14.01,2013-04-02 08:39:00,
2013-04-02 03:44:00,28.3,19.5,30.32,South,182,0.0,1.0,69,0.00,,,0.00,VWS V14.01,2013-04-02 08:44:00,
2013-04-02 03:49:00,28.3,19.8,30.32,South,182,0.0,1.0,70,0.00,,,0.00,VWS V14.01,2013-04-02 08:49:00,
2013-04-02 03:54:00,28.2,19.7,30.32,South,182,0.0,1.0,70,0.00,,,0.00,VWS V14.01,2013-04-02 08:54:00,
2013-04-02 03:59:00,28.2,19.7,30.31,South,182,0.0,1.0,70,0.00,,,0.00,VWS V14.01,2013-04-02 08:59:00,
2013-04-02 04:00:00,29.3,19.7,30.31,South,181,0.0,2.0,67,0.00,,,0.00,VWS V14.01,2013-04-02 09:00:00,
2013-04-02 04:04:00,28.1,19.6,30.31,South,182,1.0,2.0,70,0.00,,,0.00,VWS V14.01,2013-04-02 09:04:00,
2013-04-02 04:09:00,27.9,20.1,30.31,South,182,1.0,2.0,72,0.00,,,0.00,VWS V14.01,2013-04-02 09:09:00,
2013-04-02 04:15:00,27.9,19.7,30.32,South,182,1.0,2.0,71,0.00,,,0.00,VWS V14.01,2013-04-02 09:15:00,
2013-04-02 04:20:00,27.8,19.6,30.32,South,182,0.0,2.0,71,0.00,,,0.00,VWS V14.01,2013-04-02 09:20:00,
2013-04-02 04:25:00,27.7,19.5,30.32,South,182,0.0,2.0,71,0.00,,,0.00,VWS V14.01,2013-04-02 09:25:00,
2013-04-02 04:30:00,27.6,19.4,30.32,South,182,0.0,2.0,71,0.00,,,0.00,VWS V14.01,2013-04-02 09:30:00,
2013-04-02 04:35:00,27.5,19.4,30.32,South,182,0.0,0.0,71,0.00,,,0.00,VWS V14.01,2013-04-02 09:35:00,
2013-04-02 04:40:00,27.5,19.4,30.32,South,182,0.0,0.0,71,0.00,,,0.00,VWS V14.01,2013-04-02 09:40:00,
2013-04-02 04:45:00,27.5,19.4,30.32,South,182,0.0,2.0,71,0.00,,,0.00,VWS V14.01,2013-04-02 09:45:00,
2013-04-02 04:50:00,27.4,19.2,30.32,South,182,0.0,2.0,71,0.00,,,0.00,VWS V14.01,2013-04-02 09:50:00,
2013-04-02 04:55:00,27.2,19.4,30.33,South,182,0.0,2.0,72,0.00,,,0.00,VWS V14.01,2013-04-02 09:55:00,
2013-04-02 05:00:00,27.2,19.1,30.32,South,182,0.0,2.0,71,0.00,,,0.00,VWS V14.01,2013-04-02 10:00:00,
2013-04-02 05:05:00,27.2,19.1,30.33,South,182,0.0,2.0,71,0.00,,,0.00,VWS V14.01,2013-04-02 10:05:00,
2013-04-02 05:10:00,27.4,19.2,30.33,South,182,1.0,2.0,71,0.00,,,0.00,VWS V14.01,2013-04-02 10:10:00,
2013-04-02 05:15:00,27.5,19.4,30.33,South,182,0.0,2.0,71,0.00,,,0.00,VWS V14.01,2013-04-02 10:15:00,
2013-04-02 05:20:00,27.6,19.4,30.33,South,182,0.0,2.0,71,0.00,,,0.00,VWS V14.01,2013-04-02 10:20:00,
2013-04-02 05:25:00,27.5,19.0,30.33,South,182,0.0,2.0,70,0.00,,,0.00,VWS V14.01,2013-04-02 10:25:00,
2013-04-02 05:30:00,27.4,18.9,30.33,South,182,0.0,2.0,70,0.00,,,0.00,VWS V14.01,2013-04-02 10:30:00,
2013-04-02 05:35:00,27.3,18.8,30.33,South,183,0.0,2.0,70,0.00,,,0.00,VWS V14.01,2013-04-02 10:35:00,
2013-04-02 05:40:00,27.2,19.1,30.33,South,183,0.0,2.0,71,0.00,,,0.00,VWS V14.01,2013-04-02 10:40:00,
2013-04-02 05:45:00,27.1,19.0,30.33,South,183,0.0,2.0,71,0.00,,,0.00,VWS V14.01,2013-04-02 10:45:00,
2013-04-02 05:50:00,27.1,19.0,30.33,South,183,0.0,2.0,71,0.00,,,0.00,VWS V14.01,2013-04-02 10:50:00,
2013-04-02 05:55:00,27.1,19.3,30.33,South,183,0.0,2.0,72,0.00,,,0.00,VWS V14.01,2013-04-02 10:55:00,
2013-04-02 06:00:00,27.1,19.3,30.33,South,186,2.0,2.0,72,0.00,,,0.00,VWS V14.01,2013-04-02 11:00:00,
2013-04-02 06:05:00,27.3,19.1,30.34,SSW,193,1.0,3.0,71,0.00,,,0.00,VWS V14.01,2013-04-02 11:05:00,
2013-04-02 06:10:00,27.4,19.2,30.34,SSW,193,0.0,3.0,71,0.00,,,0.00,VWS V14.01,2013-04-02 11:10:00,
2013-04-02 06:15:00,27.6,19.1,30.34,SSW,193,0.0,3.0,70,0.00,,,0.00,VWS V14.01,2013-04-02 11:15:00,
2013-04-02 06:20:00,27.8,19.6,30.34,SSW,193,0.0,3.0,71,0.00,,,0.00,VWS V14.01,2013-04-02 11:20:00,
2013-04-02 06:25:00,27.8,19.3,30.34,SSW,193,0.0,3.0,70,0.00,,,0.00,VWS V14.01,2013-04-02 11:25:00,
2013-04-02 06:30:00,27.8,19.3,30.35,SSW,202,2.0,2.0,70,0.00,,,0.00,VWS V14.01,2013-04-02 11:30:00,
2013-04-02 06:35:00,27.9,19.4,30.35,SSW,202,0.0,3.0,70,0.00,,,0.00,VWS V14.01,2013-04-02 11:35:00,
2013-04-02 06:40:00,28.0,19.5,30.35,SSW,202,0.0,3.0,70,0.00,,,0.00,VWS V14.01,2013-04-02 11:40:00,
2013-04-02 06:45:00,28.0,19.5,30.35,SSW,202,1.0,3.0,70,0.00,,,0.00,VWS V14.01,2013-04-02 11:45:00,
2013-04-02 06:50:00,27.9,19.4,30.35,SSW,202,0.0,3.0,70,0.00,,,0.00,VWS V14.01,2013-04-02 11:50:00,
2013-04-02 06:55:00,27.8,19.3,30.35,SSW,204,1.0,3.0,70,0.00,,,0.00,VWS V14.01,2013-04-02 11:55:00,
2013-04-02 07:00:00,27.6,19.1,30.36,SSW,204,1.0,1.0,70,0.00,,,0.00,VWS V14.01,2013-04-02 12:00:00,
2013-04-02 07:05:00,27.3,19.1,30.36,SSW,204,0.0,2.0,71,0.00,,,0.00,VWS V14.01,2013-04-02 12:05:00,
2013-04-02 07:10:00,26.9,19.4,30.36,SSW,204,0.0,2.0,73,0.00,,,0.00,VWS V14.01,2013-04-02 12:10:00,
2013-04-02 07:15:00,26.6,19.4,30.36,NW,311,0.0,2.0,74,0.00,,,0.00,VWS V14.01,2013-04-02 12:15:00,
2013-04-02 07:20:00,26.3,19.5,30.36,NW,311,1.0,2.0,75,0.00,,,0.00,VWS V14.01,2013-04-02 12:20:00,
2013-04-02 07:25:00,26.3,19.8,30.37,NW,311,0.0,2.0,76,0.00,,,0.00,VWS V14.01,2013-04-02 12:25:00,
2013-04-02 07:30:00,26.3,20.1,30.37,NW,311,0.0,0.0,77,0.00,,,0.00,VWS V14.01,2013-04-02 12:30:00,
2013-04-02 07:35:00,26.3,20.1,30.37,NW,311,0.0,0.0,77,0.00,,,0.00,VWS V14.01,2013-04-02 12:35:00,
2013-04-02 07:40:00,26.6,20.4,30.37,NW,311,0.0,0.0,77,0.00,,,0.00,VWS V14.01,2013-04-02 12:40:00,
2013-04-02 07:45:00,27.0,20.8,30.38,NW,311,0.0,0.0,77,0.00,,,0.00,VWS V14.01,2013-04-02 12:45:00,
2013-04-02 07:50:00,27.4,20.8,30.38,NW,311,0.0,0.0,76,0.00,,,0.00,VWS V14.01,2013-04-02 12:50:00,
2013-04-02 07:55:00,27.7,21.1,30.38,NW,311,0.0,0.0,76,0.00,,,0.00,VWS V14.01,2013-04-02 12:55:00,
2013-04-02 08:00:00,28.0,21.1,30.38,NW,311,0.0,0.0,75,0.00,,,0.00,VWS V14.01,2013-04-02 13:00:00,
2013-04-02 08:05:00,28.4,21.5,30.38,NW,311,0.0,0.0,75,0.00,,,0.00,VWS V14.01,2013-04-02 13:05:00,
2013-04-02 08:10:00,28.9,22.0,30.38,NW,311,0.0,0.0,75,0.00,,,0.00,VWS V14.01,2013-04-02 13:10:00,
2013-04-02 08:15:00,29.6,22.4,30.39,NW,311,0.0,2.0,74,0.00,,,0.00,VWS V14.01,2013-04-02 13:15:00,
2013-04-02 08:20:00,30.1,22.2,30.39,NW,311,0.0,2.0,72,0.00,,,0.00,VWS V14.01,2013-04-02 13:20:00,
2013-04-02 08:25:00,30.5,21.9,30.39,West,275,0.0,4.0,70,0.00,,,0.00,VWS V14.01,2013-04-02 13:25:00,
2013-04-02 08:30:00,30.8,21.5,30.40,West,275,0.0,2.0,68,0.00,,,0.00,VWS V14.01,2013-04-02 13:30:00,
2013-04-02 08:35:00,31.1,21.8,30.40,West,275,0.0,2.0,68,0.00,,,0.00,VWS V14.01,2013-04-02 13:35:00,
2013-04-02 08:40:00,31.6,21.6,30.40,West,275,0.0,2.0,66,0.00,,,0.00,VWS V14.01,2013-04-02 13:40:00,
2013-04-02 08:45:00,32.0,21.6,30.40,West,275,0.0,4.0,65,0.00,,,0.00,VWS V14.01,2013-04-02 13:45:00,
2013-04-02 08:50:00,32.5,22.1,30.40,West,275,0.0,4.0,65,0.00,,,0.00,VWS V14.01,2013-04-02 13:50:00,
2013-04-02 08:55:00,33.0,20.6,30.40,East,89,3.0,5.0,60,0.00,,,0.00,VWS V14.01,2013-04-02 13:55:00,
2013-04-02 09:00:00,33.5,19.9,30.39,ESE,116,2.0,4.0,57,0.00,,,0.00,VWS V14.01,2013-04-02 14:00:00,
2013-04-02 09:05:00,34.0,19.5,30.40,ESE,113,0.0,5.0,55,0.00,,,0.00,VWS V14.01,2013-04-02 14:05:00,
2013-04-02 09:10:00,34.4,20.3,30.40,ESE,105,2.0,5.0,56,0.00,,,0.00,VWS V14.01,2013-04-02 14:10:00,
2013-04-02 09:15:00,34.7,19.8,30.40,East,88,2.0,5.0,54,0.00,,,0.00,VWS V14.01,2013-04-02 14:15:00,
2013-04-02 09:20:00,35.1,19.7,30.39,ESE,115,5.0,6.0,53,0.00,,,0.00,VWS V14.01,2013-04-02 14:20:00,
2013-04-02 09:25:00,35.4,20.9,30.39,East,84,6.0,6.0,55,0.00,,,0.00,VWS V14.01,2013-04-02 14:25:00,
2013-04-02 09:30:00,35.7,19.4,30.39,ESE,114,4.0,4.0,51,0.00,,,0.00,VWS V14.01,2013-04-02 14:30:00,
2013-04-02 09:35:00,35.8,19.9,30.39,ENE,69,3.0,5.0,52,0.00,,,0.00,VWS V14.01,2013-04-02 14:35:00,
2013-04-02 09:40:00,36.1,20.2,30.39,East,94,5.0,7.0,52,0.00,,,0.00,VWS V14.01,2013-04-02 14:40:00,
2013-04-02 09:45:00,36.3,19.9,30.39,East,85,3.0,7.0,51,0.00,,,0.00,VWS V14.01,2013-04-02 14:45:00,
2013-04-02 09:50:00,36.4,19.1,30.39,East,87,7.0,7.0,49,0.00,,,0.00,VWS V14.01,2013-04-02 14:50:00,
2013-04-02 09:55:00,36.3,19.5,30.39,East,96,4.0,8.0,50,0.00,,,0.00,VWS V14.01,2013-04-02 14:55:00,
2013-04-02 10:00:00,36.5,19.6,30.39,SE,127,4.0,4.0,50,0.00,,,0.00,VWS V14.01,2013-04-02 15:00:00,
2013-04-02 10:05:00,36.9,20.9,30.39,East,88,1.0,8.0,52,0.00,,,0.00,VWS V14.01,2013-04-02 15:05:00,
2013-04-02 10:10:00,37.0,19.1,30.38,East,97,2.0,8.0,48,0.00,,,0.00,VWS V14.01,2013-04-02 15:10:00,
2013-04-02 10:15:00,36.8,19.9,30.38,ENE,78,7.0,8.0,50,0.00,,,0.00,VWS V14.01,2013-04-02 15:15:00,
2013-04-02 10:20:00,37.3,20.9,30.38,East,94,4.0,8.0,51,0.00,,,0.00,VWS V14.01,2013-04-02 15:20:00,
2013-04-02 10:25:00,37.7,20.3,30.38,East,86,6.0,9.0,49,0.00,,,0.00,VWS V14.01,2013-04-02 15:25:00,
2013-04-02 10:30:00,37.5,20.1,30.38,NNE,31,1.0,3.0,49,0.00,,,0.00,VWS V14.01,2013-04-02 15:30:00,
2013-04-02 10:35:00,37.9,20.5,30.38,ESE,121,2.0,7.0,49,0.00,,,0.00,VWS V14.01,2013-04-02 15:35:00,
2013-04-02 10:41:00,38.4,18.9,30.38,WNW,293,4.0,7.0,45,0.00,,,0.00,VWS V14.01,2013-04-02 15:41:00,
2013-04-02 10:46:00,38.5,20.0,30.38,WNW,295,0.0,7.0,47,0.00,,,0.00,VWS V14.01,2013-04-02 15:46:00,
2013-04-02 11:00:00,38.2,19.3,30.39,ENE,67,3.0,7.0,46,0.00,,,0.00,VWS V14.01,2013-04-02 16:00:00,
2013-04-02 11:06:00,39.1,20.1,30.39,NE,46,5.0,5.0,46,0.00,,,0.00,VWS V14.01,2013-04-02 16:06:00,
2013-04-02 11:11:00,39.4,17.1,30.38,East,101,4.0,6.0,40,0.00,,,0.00,VWS V14.01,2013-04-02 16:11:00,
2013-04-02 11:16:00,39.6,17.9,30.38,East,92,4.0,6.0,41,0.00,,,0.00,VWS V14.01,2013-04-02 16:16:00,
2013-04-02 11:21:00,39.8,16.3,30.38,NE,35,4.0,6.0,38,0.00,,,0.00,VWS V14.01,2013-04-02 16:21:00,
2013-04-02 11:26:00,40.2,17.2,30.38,East,92,6.0,8.0,39,0.00,,,0.00,VWS V14.01,2013-04-02 16:26:00,
2013-04-02 11:30:00,37.5,19.1,30.38,NNE,27,0.0,9.0,47,0.00,,,0.00,VWS V14.01,2013-04-02 16:30:00,
2013-04-02 11:31:00,40.5,18.1,30.38,ENE,66,7.0,7.0,40,0.00,,,0.00,VWS V14.01,2013-04-02 16:31:00,
2013-04-02 11:36:00,40.6,17.6,30.37,ESE,103,4.0,7.0,39,0.00,,,0.00,VWS V14.01,2013-04-02 16:36:00,
2013-04-02 11:41:00,40.8,17.8,30.37,East,92,2.0,7.0,39,0.00,,,0.00,VWS V14.01,2013-04-02 16:41:00,
2013-04-02 11:46:00,40.8,17.8,30.37,East,89,2.0,7.0,39,0.00,,,0.00,VWS V14.01,2013-04-02 16:46:00,
2013-04-02 11:52:00,41.0,18.5,30.37,East,84,3.0,9.0,40,0.00,,,0.00,VWS V14.01,2013-04-02 16:52:00,
2013-04-02 11:57:00,41.2,18.7,30.37,ENE,78,3.0,9.0,40,0.00,,,0.00,VWS V14.01,2013-04-02 16:57:00,
2013-04-02 12:00:00,38.2,19.3,30.39,ENE,67,3.0,7.0,46,0.00,,,0.00,VWS V14.01,2013-04-02 17:00:00,
2013-04-02 12:02:00,41.3,16.4,30.36,East,98,2.0,7.0,36,0.00,,,0.00,VWS V14.01,2013-04-02 17:02:00,
2013-04-02 12:07:00,41.6,17.3,30.36,NNE,32,2.0,8.0,37,0.00,,,0.00,VWS V14.01,2013-04-02 17:07:00,
2013-04-02 12:12:00,41.8,18.7,30.36,ESE,122,2.0,9.0,39,0.00,,,0.00,VWS V14.01,2013-04-02 17:12:00,
2013-04-02 12:17:00,42.2,19.6,30.36,East,87,3.0,9.0,40,0.00,,,0.00,VWS V14.01,2013-04-02 17:17:00,
2013-04-02 12:22:00,42.5,16.1,30.36,East,97,1.0,9.0,34,0.00,,,0.00,VWS V14.01,2013-04-02 17:22:00,
2013-04-02 12:27:00,42.5,16.8,30.36,ESE,115,2.0,9.0,35,0.00,,,0.00,VWS V14.01,2013-04-02 17:27:00,
2013-04-02 12:30:00,40.4,18.0,30.38,NNE,25,2.0,8.0,40,0.00,,,0.00,VWS V14.01,2013-04-02 17:30:00,
2013-04-02 12:32:00,42.6,16.9,30.35,ESE,109,6.0,6.0,35,0.00,,,0.00,VWS V14.01,2013-04-02 17:32:00,
2013-04-02 12:37:00,42.7,17.0,30.36,NNE,26,2.0,6.0,35,0.00,,,0.00,VWS V14.01,2013-04-02 17:37:00,
2013-04-02 12:42:00,43.1,17.3,30.35,ESE,120,1.0,6.0,35,0.00,,,0.00,VWS V14.01,2013-04-02 17:42:00,
2013-04-02 12:47:00,43.6,15.7,30.35,NNE,19,4.0,6.0,32,0.00,,,0.00,VWS V14.01,2013-04-02 17:47:00,
2013-04-02 12:52:00,43.8,17.3,30.35,North,355,0.0,6.0,34,0.00,,,0.00,VWS V14.01,2013-04-02 17:52:00,
2013-04-02 12:57:00,44.2,18.3,30.35,South,184,0.0,6.0,35,0.00,,,0.00,VWS V14.01,2013-04-02 17:57:00,
2013-04-02 13:00:00,41.3,17.6,30.37,ENE,60,3.0,9.0,38,0.00,,,0.00,VWS V14.01,2013-04-02 18:00:00,
2013-04-02 13:02:00,44.8,18.8,30.35,NE,34,3.0,4.0,35,0.00,,,0.00,VWS V14.01,2013-04-02 18:02:00,
2013-04-02 13:07:00,44.9,16.1,30.35,NW,313,1.0,7.0,31,0.00,,,0.00,VWS V14.01,2013-04-02 18:07:00,
2013-04-02 13:12:00,44.7,16.7,30.35,WSW,254,5.0,8.0,32,0.00,,,0.00,VWS V14.01,2013-04-02 18:12:00,
2013-04-02 13:17:00,44.0,16.8,30.35,WNW,302,1.0,8.0,33,0.00,,,0.00,VWS V14.01,2013-04-02 18:17:00,
2013-04-02 13:27:00,44.0,16.0,30.35,NW,305,2.0,8.0,32,0.00,,,0.00,VWS V14.01,2013-04-02 18:27:00,
2013-04-02 13:30:00,42.6,16.2,30.36,East,91,2.0,9.0,34,0.00,,,0.00,VWS V14.01,2013-04-02 18:30:00,
2013-04-02 13:32:00,43.7,17.9,30.34,West,268,0.0,8.0,35,0.00,,,0.00,VWS V14.01,2013-04-02 18:32:00,
2013-04-02 13:37:00,43.8,16.6,30.34,West,262,2.0,8.0,33,0.00,,,0.00,VWS V14.01,2013-04-02 18:37:00,
2013-04-02 13:42:00,43.8,16.6,30.34,West,261,5.0,13.0,33,0.00,,,0.00,VWS V14.01,2013-04-02 18:42:00,
2013-04-02 13:53:00,44.3,18.4,30.34,NW,306,2.0,13.0,35,0.00,,,0.00,VWS V14.01,2013-04-02 18:53:00,
2013-04-02 13:58:00,44.6,15.9,30.34,North,355,7.0,13.0,31,0.00,,,0.00,VWS V14.01,2013-04-02 18:58:00,
2013-04-02 14:00:00,44.6,19.3,30.35,NE,49,3.0,6.0,36,0.00,,,0.00,VWS V14.01,2013-04-02 19:00:00,
2013-04-02 14:03:00,44.7,15.9,30.34,NE,37,1.0,6.0,31,0.00,,,0.00,VWS V14.01,2013-04-02 19:03:00,
2013-04-02 14:08:00,45.1,17.0,30.33,SE,137,0.0,6.0,32,0.00,,,0.00,VWS V14.01,2013-04-02 19:08:00,
2013-04-02 14:13:00,45.5,16.6,30.33,WNW,288,1.0,8.0,31,0.00,,,0.00,VWS V14.01,2013-04-02 19:13:00,
2013-04-02 14:18:00,45.6,19.5,30.33,NW,319,5.0,8.0,35,0.00,,,0.00,VWS V14.01,2013-04-02 19:18:00,
2013-04-02 14:28:00,45.2,14.9,30.33,NNE,22,2.0,11.0,29,0.00,,,0.00,VWS V14.01,2013-04-02 19:28:00,
2013-04-02 14:30:00,43.8,16.6,30.35,WNW,294,4.0,8.0,33,0.00,,,0.00,VWS V14.01,2013-04-02 19:30:00,
2013-04-02 14:33:00,45.1,14.0,30.32,NNE,30,1.0,7.0,28,0.00,,,0.00,VWS V14.01,2013-04-02 19:33:00,
2013-04-02 14:38:00,45.6,13.6,30.32,WNW,302,2.0,8.0,27,0.00,,,0.00,VWS V14.01,2013-04-02 19:38:00,
2013-04-02 14:43:00,45.9,15.4,30.33,WSW,257,0.0,13.0,29,0.00,,,0.00,VWS V14.01,2013-04-02 19:43:00,
2013-04-02 14:48:00,45.9,15.4,30.32,NW,309,9.0,13.0,29,0.00,,,0.00,VWS V14.01,2013-04-02 19:48:00,
2013-04-02 14:53:00,45.7,17.5,30.32,West,263,7.0,13.0,32,0.00,,,0.00,VWS V14.01,2013-04-02 19:53:00,
2013-04-02 14:58:00,45.8,16.9,30.32,WSW,257,5.0,13.0,31,0.00,,,0.00,VWS V14.01,2013-04-02 19:58:00,
2013-04-02 15:00:00,44.7,17.4,30.34,NW,326,5.0,13.0,33,0.00,,,0.00,VWS V14.01,2013-04-02 20:00:00,
2013-04-02 15:08:00,45.8,14.6,30.31,West,263,5.0,11.0,28,0.00,,,0.00,VWS V14.01,2013-04-02 20:08:00,
2013-04-02 15:18:00,45.7,15.3,30.31,WNW,288,5.0,11.0,29,0.00,,,0.00,VWS V14.01,2013-04-02 20:18:00,
2013-04-02 15:23:00,45.8,16.1,30.31,WNW,289,2.0,11.0,30,0.00,,,0.00,VWS V14.01,2013-04-02 20:23:00,
2013-04-02 15:28:00,46.3,15.8,30.31,WSW,239,2.0,11.0,29,0.00,,,0.00,VWS V14.01,2013-04-02 20:28:00,
2013-04-02 15:30:00,45.2,14.9,30.32,WNW,293,2.0,12.0,29,0.00,,,0.00,VWS V14.01,2013-04-02 20:30:00,
2013-04-02 15:33:00,46.5,16.0,30.31,WSW,251,3.0,6.0,29,0.00,,,0.00,VWS V14.01,2013-04-02 20:33:00,
2013-04-02 15:38:00,46.5,16.0,30.31,WSW,247,0.0,11.0,29,0.00,,,0.00,VWS V14.01,2013-04-02 20:38:00,
2013-04-02 15:43:00,46.7,16.1,30.31,NNE,27,4.0,11.0,29,0.00,,,0.00,VWS V14.01,2013-04-02 20:43:00,
2013-04-02 15:48:00,46.9,15.5,30.31,North,5,2.0,11.0,28,0.00,,,0.00,VWS V14.01,2013-04-02 20:48:00,
2013-04-02 15:53:00,47.3,16.7,30.30,North,11,1.0,11.0,29,0.00,,,0.00,VWS V14.01,2013-04-02 20:53:00,
2013-04-02 15:58:00,47.7,15.4,30.30,West,280,2.0,11.0,27,0.00,,,0.00,VWS V14.01,2013-04-02 20:58:00,
2013-04-02 16:00:00,45.8,13.7,30.32,WSW,254,6.0,14.0,27,0.00,,,0.00,VWS V14.01,2013-04-02 21:00:00,
2013-04-02 16:04:00,47.7,17.0,30.30,WSW,244,2.0,6.0,29,0.00,,,0.00,VWS V14.01,2013-04-02 21:04:00,
2013-04-02 16:09:00,47.7,17.0,30.30,SW,235,1.0,6.0,29,0.00,,,0.00,VWS V14.01,2013-04-02 21:09:00,
2013-04-02 16:14:00,48.0,15.6,30.30,WNW,285,2.0,6.0,27,0.00,,,0.00,VWS V14.01,2013-04-02 21:14:00,
2013-04-02 16:19:00,48.2,13.1,30.30,NE,34,2.0,7.0,24,0.00,,,0.00,VWS V14.01,2013-04-02 21:19:00,
2013-04-02 16:24:00,48.0,12.9,30.30,NNE,32,1.0,7.0,24,0.00,,,0.00,VWS V14.01,2013-04-02 21:24:00,
2013-04-02 16:29:00,47.9,12.9,30.30,ENE,77,4.0,7.0,24,0.00,,,0.00,VWS V14.01,2013-04-02 21:29:00,
2013-04-02 16:30:00,46.4,15.9,30.31,SE,139,2.0,11.0,29,0.00,,,0.00,VWS V14.01,2013-04-02 21:30:00,
2013-04-02 16:34:00,47.9,14.7,30.30,WNW,297,6.0,8.0,26,0.00,,,0.00,VWS V14.01,2013-04-02 21:34:00,
2013-04-02 16:39:00,48.0,12.0,30.30,WNW,288,4.0,8.0,23,0.00,,,0.00,VWS V14.01,2013-04-02 21:39:00,
2013-04-02 16:44:00,47.8,12.8,30.30,North,5,4.0,8.0,24,0.00,,,0.00,VWS V14.01,2013-04-02 21:44:00,
2013-04-02 16:49:00,47.8,12.8,30.30,NE,37,1.0,8.0,24,0.00,,,0.00,VWS V14.01,2013-04-02 21:49:00,
2013-04-02 16:54:00,47.9,13.8,30.29,ENE,59,0.0,8.0,25,0.00,,,0.00,VWS V14.01,2013-04-02 21:54:00,
2013-04-02 16:59:00,48.0,15.6,30.29,NW,304,0.0,8.0,27,0.00,,,0.00,VWS V14.01,2013-04-02 21:59:00,
2013-04-02 17:00:00,47.7,15.4,30.30,West,267,3.0,11.0,27,0.00,,,0.00,VWS V14.01,2013-04-02 22:00:00,
2013-04-02 17:04:00,48.3,16.7,30.30,NW,304,2.0,6.0,28,0.00,,,0.00,VWS V14.01,2013-04-02 22:04:00,
2013-04-02 17:09:00,48.2,13.1,30.30,NW,315,6.0,7.0,24,0.00,,,0.00,VWS V14.01,2013-04-02 22:09:00,
2013-04-02 17:14:00,48.1,14.9,30.30,NNE,30,3.0,7.0,26,0.00,,,0.00,VWS V14.01,2013-04-02 22:14:00,
2013-04-02 17:19:00,47.8,15.5,30.30,WNW,292,2.0,7.0,27,0.00,,,0.00,VWS V14.01,2013-04-02 22:19:00,
2013-04-02 17:24:00,47.8,15.5,30.29,West,269,6.0,8.0,27,0.00,,,0.00,VWS V14.01,2013-04-02 22:24:00,
2013-04-02 17:29:00,47.8,17.1,30.29,West,261,2.0,8.0,29,0.00,,,0.00,VWS V14.01,2013-04-02 22:29:00,
2013-04-02 17:30:00,47.9,11.9,30.30,East,96,5.0,7.0,23,0.00,,,0.00,VWS V14.01,2013-04-02 22:30:00,
2013-04-02 17:34:00,47.9,14.7,30.29,NW,323,0.0,5.0,26,0.00,,,0.00,VWS V14.01,2013-04-02 22:34:00,
2013-04-02 17:39:00,48.0,15.6,30.29,West,278,0.0,6.0,27,0.00,,,0.00,VWS V14.01,2013-04-02 22:39:00,
2013-04-02 17:44:00,48.2,17.5,30.29,West,278,1.0,6.0,29,0.00,,,0.00,VWS V14.01,2013-04-02 22:44:00,
2013-04-02 17:49:00,48.3,15.9,30.29,West,278,2.0,6.0,27,0.00,,,0.00,VWS V14.01,2013-04-02 22:49:00,
2013-04-02 17:54:00,48.3,15.0,30.30,WNW,286,2.0,9.0,26,0.00,,,0.00,VWS V14.01,2013-04-02 22:54:00,
2013-04-02 17:59:00,48.0,14.8,30.29,NNE,27,0.0,9.0,26,0.00,,,0.00,VWS V14.01,2013-04-02 22:59:00,
2013-04-02 18:00:00,48.1,15.7,30.29,NW,304,0.0,8.0,27,0.00,,,0.00,VWS V14.01,2013-04-02 23:00:00,
2013-04-02 18:04:00,47.9,14.7,30.30,West,267,2.0,6.0,26,0.00,,,0.00,VWS V14.01,2013-04-02 23:04:00,
2013-04-02 18:14:00,47.9,15.6,30.30,WNW,290,0.0,6.0,27,0.00,,,0.00,VWS V14.01,2013-04-02 23:14:00,
2013-04-02 18:19:00,47.9,14.7,30.30,WNW,284,5.0,6.0,26,0.00,,,0.00,VWS V14.01,2013-04-02 23:19:00,
2013-04-02 18:24:00,47.7,15.4,30.30,West,281,2.0,7.0,27,0.00,,,0.00,VWS V14.01,2013-04-02 23:24:00,
2013-04-02 18:29:00,47.6,14.4,30.30,West,281,1.0,7.0,26,0.00,,,0.00,VWS V14.01,2013-04-02 23:29:00,
2013-04-02 18:30:00,47.8,17.1,30.29,West,261,3.0,8.0,29,0.00,,,0.00,VWS V14.01,2013-04-02 23:30:00,
2013-04-02 18:35:00,47.4,14.2,30.30,WNW,288,0.0,6.0,26,0.00,,,0.00,VWS V14.01,2013-04-02 23:35:00,
2013-04-02 18:40:00,47.3,14.2,30.30,WNW,298,2.0,6.0,26,0.00,,,0.00,VWS V14.01,2013-04-02 23:40:00,
2013-04-02 18:45:00,47.2,14.9,30.30,WNW,298,2.0,6.0,27,0.00,,,0.00,VWS V14.01,2013-04-02 23:45:00,
2013-04-02 18:50:00,47.2,14.9,30.30,WNW,298,0.0,6.0,27,0.00,,,0.00,VWS V14.01,2013-04-02 23:50:00,
2013-04-02 18:55:00,47.0,15.6,30.30,WNW,298,0.0,6.0,28,0.00,,,0.00,VWS V14.01,2013-04-02 23:55:00,
2013-04-02 19:00:00,46.9,16.3,30.30,WNW,298,0.0,6.0,29,0.00,,,0.00,VWS V14.01,2013-04-03 00:00:00,
2013-04-02 19:10:00,46.3,17.3,30.30,North,355,0.0,4.0,31,0.00,,,0.00,VWS V14.01,2013-04-03 00:10:00,
2013-04-02 19:15:00,46.0,17.1,30.30,North,355,0.0,4.0,31,0.00,,,0.00,VWS V14.01,2013-04-03 00:15:00,
2013-04-02 19:20:00,45.6,16.0,30.30,North,355,0.0,4.0,30,0.00,,,0.00,VWS V14.01,2013-04-03 00:20:00,
2013-04-02 19:25:00,45.3,18.6,30.30,North,355,0.0,4.0,34,0.00,,,0.00,VWS V14.01,2013-04-03 00:25:00,
2013-04-02 19:30:00,44.8,18.8,30.30,North,355,0.0,4.0,35,0.00,,,0.00,VWS V14.01,2013-04-03 00:30:00,
2013-04-02 19:35:00,44.2,18.3,30.30,North,355,0.0,0.0,35,0.00,,,0.00,VWS V14.01,2013-04-03 00:35:00,
2013-04-02 19:40:00,43.7,19.1,30.30,North,355,0.0,2.0,37,0.00,,,0.00,VWS V14.01,2013-04-03 00:40:00,
2013-04-02 19:45:00,43.1,18.6,30.30,North,355,0.0,2.0,37,0.00,,,0.00,VWS V14.01,2013-04-03 00:45:00,
2013-04-02 19:50:00,42.5,18.7,30.30,North,355,0.0,2.0,38,0.00,,,0.00,VWS V14.01,2013-04-03 00:50:00,
2013-04-02 19:55:00,42.0,19.5,30.30,North,355,1.0,2.0,40,0.00,,,0.00,VWS V14.01,2013-04-03 00:55:00,
2013-04-02 20:00:00,41.6,17.9,30.30,North,355,1.0,1.0,38,0.00,,,0.00,VWS V14.01,2013-04-03 01:00:00,
2013-04-02 20:05:00,41.2,18.7,30.30,North,355,0.0,2.0,40,0.00,,,0.00,VWS V14.01,2013-04-03 01:05:00,
2013-04-02 20:10:00,40.9,18.5,30.31,North,355,0.0,2.0,40,0.00,,,0.00,VWS V14.01,2013-04-03 01:10:00,
2013-04-02 20:15:00,40.6,18.2,30.31,North,355,0.0,2.0,40,0.00,,,0.00,VWS V14.01,2013-04-03 01:15:00,
2013-04-02 20:20:00,40.4,18.6,30.31,North,355,0.0,2.0,41,0.00,,,0.00,VWS V14.01,2013-04-03 01:20:00,
2013-04-02 20:25:00,40.3,17.3,30.31,North,355,0.0,2.0,39,0.00,,,0.00,VWS V14.01,2013-04-03 01:25:00,
2013-04-02 20:30:00,40.4,17.4,30.31,North,355,0.0,1.0,39,0.00,,,0.00,VWS V14.01,2013-04-03 01:30:00,
2013-04-02 20:35:00,40.5,18.1,30.31,North,355,0.0,2.0,40,0.00,,,0.00,VWS V14.01,2013-04-03 01:35:00,
2013-04-02 20:40:00,40.6,17.0,30.31,North,355,1.0,2.0,38,0.00,,,0.00,VWS V14.01,2013-04-03 01:40:00,
2013-04-02 20:45:00,40.7,17.7,30.31,North,355,0.0,4.0,39,0.00,,,0.00,VWS V14.01,2013-04-03 01:45:00,
2013-04-02 20:50:00,40.6,17.6,30.32,North,355,0.0,4.0,39,0.00,,,0.00,VWS V14.01,2013-04-03 01:50:00,
2013-04-02 20:55:00,40.2,21.1,30.32,North,355,0.0,4.0,46,0.00,,,0.00,VWS V14.01,2013-04-03 01:55:00,
2013-04-02 21:00:00,39.6,20.0,30.32,North,355,0.0,0.0,45,0.00,,,0.00,VWS V14.01,2013-04-03 02:00:00,
2013-04-02 21:05:00,39.0,20.0,30.32,North,355,1.0,2.0,46,0.00,,,0.00,VWS V14.01,2013-04-03 02:05:00,
2013-04-02 21:11:00,38.5,20.0,30.33,North,355,0.0,2.0,47,0.00,,,0.00,VWS V14.01,2013-04-03 02:11:00,
2013-04-02 21:16:00,38.0,20.5,30.33,North,355,0.0,2.0,49,0.00,,,0.00,VWS V14.01,2013-04-03 02:16:00,
2013-04-02 21:21:00,37.6,21.6,30.33,North,355,0.0,2.0,52,0.00,,,0.00,VWS V14.01,2013-04-03 02:21:00,
2013-04-02 21:26:00,37.3,22.2,30.33,North,355,0.0,2.0,54,0.00,,,0.00,VWS V14.01,2013-04-03 02:26:00,
2013-04-02 21:30:00,40.4,18.0,30.31,North,355,1.0,2.0,40,0.00,,,0.00,VWS V14.01,2013-04-03 02:30:00,
2013-04-02 21:31:00,37.0,21.5,30.33,North,355,0.0,0.0,53,0.00,,,0.00,VWS V14.01,2013-04-03 02:31:00,
2013-04-02 21:36:00,36.7,21.2,30.33,North,355,0.0,0.0,53,0.00,,,0.00,VWS V14.01,2013-04-03 02:36:00,
2013-04-02 21:41:00,36.5,21.9,30.33,North,355,0.0,0.0,55,0.00,,,0.00,VWS V14.01,2013-04-03 02:41:00,
2013-04-02 21:46:00,36.2,22.0,30.34,North,355,0.0,0.0,56,0.00,,,0.00,VWS V14.01,2013-04-03 02:46:00,
2013-04-02 21:51:00,36.0,21.8,30.34,North,355,0.0,0.0,56,0.00,,,0.00,VWS V14.01,2013-04-03 02:51:00,
2013-04-02 21:56:00,35.9,21.3,30.34,North,355,0.0,0.0,55,0.00,,,0.00,VWS V14.01,2013-04-03 02:56:00,
2013-04-02 22:00:00,39.7,20.1,30.32,North,355,0.0,4.0,45,0.00,,,0.00,VWS V14.01,2013-04-03 03:00:00,
2013-04-02 22:01:00,35.7,21.1,30.34,North,355,0.0,0.0,55,0.00,,,0.00,VWS V14.01,2013-04-03 03:01:00,
2013-04-02 22:06:00,35.5,22.2,30.34,North,355,0.0,0.0,58,0.00,,,0.00,VWS V14.01,2013-04-03 03:06:00,
2013-04-02 22:16:00,35.0,22.1,30.35,North,355,0.0,0.0,59,0.00,,,0.00,VWS V14.01,2013-04-03 03:16:00,
2013-04-02 22:21:00,34.9,21.6,30.34,North,355,0.0,0.0,58,0.00,,,0.00,VWS V14.01,2013-04-03 03:21:00,
2013-04-02 22:26:00,34.7,21.0,30.34,North,355,0.0,1.0,57,0.00,,,0.00,VWS V14.01,2013-04-03 03:26:00,
2013-04-02 22:30:00,37.0,21.5,30.33,North,355,0.0,2.0,53,0.00,,,0.00,VWS V14.01,2013-04-03 03:30:00,
2013-04-02 22:36:00,34.4,22.4,30.34,North,355,0.0,0.0,61,0.00,,,0.00,VWS V14.01,2013-04-03 03:36:00,
2013-04-02 22:42:00,34.2,21.8,30.34,North,355,0.0,0.0,60,0.00,,,0.00,VWS V14.01,2013-04-03 03:42:00,
2013-04-02 22:47:00,33.9,21.5,30.34,North,355,1.0,1.0,60,0.00,,,0.00,VWS V14.01,2013-04-03 03:47:00,
2013-04-02 22:57:00,33.6,22.0,30.34,North,355,0.0,1.0,62,0.00,,,0.00,VWS V14.01,2013-04-03 03:57:00,
2013-04-02 23:00:00,33.5,21.9,30.34,North,355,0.0,1.0,62,0.00,,,0.00,VWS V14.01,2013-04-03 04:00:00,
2013-04-02 23:02:00,33.4,22.2,30.34,North,355,0.0,0.0,63,0.00,,,0.00,VWS V14.01,2013-04-03 04:02:00,
2013-04-02 23:07:00,33.2,22.4,30.34,North,355,0.0,1.0,64,0.00,,,0.00,VWS V14.01,2013-04-03 04:07:00,
2013-04-02 23:12:00,33.0,22.2,30.34,North,355,1.0,2.0,64,0.00,,,0.00,VWS V14.01,2013-04-03 04:12:00,
2013-04-02 23:17:00,32.8,22.3,30.34,North,355,0.0,2.0,65,0.00,,,0.00,VWS V14.01,2013-04-03 04:17:00,
2013-04-02 23:22:00,32.6,22.5,30.35,North,355,0.0,2.0,66,0.00,,,0.00,VWS V14.01,2013-04-03 04:22:00,
2013-04-02 23:27:00,32.4,22.3,30.34,North,355,0.0,2.0,66,0.00,,,0.00,VWS V14.01,2013-04-03 04:27:00,
2013-04-02 23:30:00,34.7,21.0,30.34,North,355,0.0,1.0,57,0.00,,,0.00,VWS V14.01,2013-04-03 04:30:00,
2013-04-02 23:32:00,32.3,22.2,30.35,North,355,0.0,0.0,66,0.00,,,0.00,VWS V14.01,2013-04-03 04:32:00,
2013-04-02 23:37:00,32.1,22.0,30.35,North,355,0.0,1.0,66,0.00,,,0.00,VWS V14.01,2013-04-03 04:37:00,
2013-04-02 23:42:00,31.9,21.9,30.35,North,355,0.0,1.0,66,0.00,,,0.00,VWS V14.01,2013-04-03 04:42:00,
2013-04-02 23:47:00,31.7,22.0,30.35,North,355,0.0,2.0,67,0.00,,,0.00,VWS V14.01,2013-04-03 04:47:00,
2013-04-02 23:52:00,31.6,21.9,30.35,North,355,0.0,2.0,67,0.00,,,0.00,VWS V14.01,2013-04-03 04:52:00,
2013-04-02 23:57:00,31.6,21.9,30.35,North,355,0.0,2.0,67,0.00,,,0.00,VWS V14.01,2013-04-03 04:57:00,